Regional Weather Roundup
Issued by NWS Green Bay, WI

Home | Current Version | Previous Version | Graphics & Text | Print | Product List | Glossary Off
Versions: 1 2 3 4 5 6 7 8 9 10 11 12 13 14 15 16 17 18 19 20 21 22 23 24 25 26 27 28 29 30 31 32 33 34 35 36 37 38 39 40 41 42 43 44 45 46 47 48 49 50

000
ASUS43 KGRB 041759
RWRGRB

NORTH-CENTRAL AND NORTHEAST WISCONSIN REGIONAL WEATHER ROUNDUP
NATIONAL WEATHER SERVICE GREEN BAY WI
100 PM CDT MON MAY 04 2015

WIZ005-009-010>012-018-019-041900-
NORTH CENTRAL WISCONSIN

CITY           SKY/WX    TMP DP  RH WIND       PRES   REMARKS
IRONWOOD       MOSUNNY   57  34  41 N10       30.17S
MANITOWISH WTR NOT AVBL
ARBOR VITAE    NOT AVBL
EAGLE RIVER    NOT AVBL
LAND O LAKES   NOT AVBL
RHINELANDER    MOSUNNY   62  33  33 N13G21    30.17S
PHILLIPS       NOT AVBL
ANTIGO         NOT AVBL
TOMAHAWK       NOT AVBL
MERRILL        NOT AVBL
$$

WIZ013-073-041900-
NORTHEAST WISCONSIN

CITY           SKY/WX    TMP DP  RH WIND       PRES   REMARKS
IRON MOUNTAIN  SUNNY     66  34  30 N10       30.13R
MARINETTE      SUNNY     61  43  51 E10       30.12R
$$

WIZ017-030-035>037-045-041900-
CENTRAL WISCONSIN

CITY           SKY/WX    TMP DP  RH WIND       PRES   REMARKS
MEDFORD        NOT AVBL
WAUSAU         SUNNY     65  33  30 MISG      30.13S
MOSINEE        SUNNY     64  36  34 W8        30.15S
MARSHFIELD     SUNNY     67  37  33 NW6       30.15S
WISC RAPIDS    SUNNY     69  32  25 VRB7      30.15S
STEVENS POINT  NOT AVBL
WAUPACA        NOT AVBL
SHAWANO        NOT AVBL
CLINTONVILLE   NOT AVBL
$$

WIZ038-039-048-051-041900-
FOX VALLEY

CITY           SKY/WX    TMP DP  RH WIND       PRES   REMARKS
NWS GREEN BAY  SUNNY     71  40  32 NE6       30.12R
APPLETON       SUNNY     68  39  34 N12       30.13R
OSHKOSH        MOSUNNY   68  42  38 E9        30.13R
FOND DU LAC    MOSUNNY   70  42  36 N8        30.13R
$$

WIZ022-050-052-041900-
EAST CENTRAL WISCONSIN

CITY           SKY/WX    TMP DP  RH WIND       PRES   REMARKS
STURGEON BAY   SUNNY     66  39  37 N12       30.14R
MANITOWOC      NOT AVBL
SHEBOYGAN      SUNNY     68  39  34 E12       30.13R
$$

LMZ563-521-522-541>543-041900-
LAKESHORE

STATION/POSITION TIME  TEMP    WIND        PRES    VSBY  WAVE
                       AIR SEA DIR/SP/G                  HT/PER
                 (UTC) (F)     (DEG/KT/KT) (MB)    (MI)  (FT/S)
SHEBOYGAN LKSHOR 1700   56      20/  7/  7 1020.6R
KEWAUNEE LKSHORE 1700   56      60/  3/  5 1019.1R
NORTHPORT PIER   1700   51     330/  4/  8 1020.0R
CHAMBERS ISLAND  1700   56      50/  7/ 10 1019.6R
MENOMINEE LKSHOR 1700   54      70/ 10/ 12 1020.1R
$$



USA.gov is the U.S. government's official web portal to all federal, state and local government web resources and services.